Location: Unspecified
(0.0000°N, 0.0000°E)
Time: 13:53:57
(UTC+00:00)

LightSail 2 - Pass Details

Date: 27 March 2020
Orbit: 693 x 726 km, 24.0° (Epoch: 02 April)

Event Time Altitude Azimuth Distance (km) Brightness Sun altitude
Exits shadow 04:07:02 31° 151° (SSE) 1,194 6.4 -29.5°
Drops below altitude 10° 04:11:19 10° 93° (E) 2,148 8.6 -28.5°
Sets 04:13:58 0° 83° (E) 3,070 9.7 -27.8°
